Location: Shenandoah County Park
(38.9356°N, 78.4524°W)
Time: 14:10:53
(UTC-05:00)

Transit 2A - Pass Details

Date: 17 October 2025
Orbit: 591 x 954 km, 66.7° (Epoch: 07 November)

Event Time Altitude Azimuth Distance (km) Brightness Sun altitude
Exits shadow 03:12:31 11° 80° (E) 2,587 9.1 -48.0°
Drops below altitude 10° 03:12:52 10° 83° (E) 2,664 9.2 -48.0°
Sets 03:16:26 0° 103° (ESE) 3,622 9.9 -47.4°
